Regional Weather Roundup
Issued by NWS New Orleans/Baton Rouge, LA

Home | Current Version | Previous Version | Graphics & Text | Print | Product List | Glossary On
Versions: 1 2 3 4 5 6 7 8 9 10 11 12 13 14 15 16 17 18 19 20 21 22 23 24 25 26 27 28 29 30 31 32 33 34 35 36 37 38 39 40 41 42 43 44 45 46 47 48 49 50
039
ASUS44 KLIX 200701
RWRLIX
NEW ORLEANS REGIONAL WEATHER ROUNDUP
NATIONAL WEATHER SERVICE NEW ORLEANS LA
200 AM CDT MON OCT 20 2014

NOTE: "FAIR" INDICATES FEW OR NO CLOUDS BELOW 12,000 FEET WITH NO
      SIGNIFICANT WEATHER AND/OR OBSTRUCTIONS TO VISIBILITY.
      SKY/WX - SKY CONDITION AND SIGNIFICANT WEATHER.
      TMP - AIR TEMPERATURE.     DP    - DEWPOINT TEMPERATURE.
      RH  - RELATIVE HUMIDITY.   PRES  - PRESSURE.
      HI  - HEAT INDEX.          WCI   - WIND CHILL INDEX.

*  THESE STATIONS ARE NOT NWS OR FAA STATIONS AND ARE NOT UNDER
   NWS QUALITY CONTROL.

LAZ038-040-048-061>063-065>067-069-200800-
SOUTHEAST LOUISIANA

CITY           SKY/WX    TMP DP  RH WIND       PRES   REMARKS
N.O. AUDUBON     N/A     61  61 100 MISG        N/A
N.O. INTL ARPT   N/A     62  55  77 E3        30.05F
N.O. LAKEFRONT   N/A     65  58  78 E5        30.06F
N.O. DOWNTOWN*   N/A     66  55  68 CALM      30.06F
SLIDELL          N/A     52  49  89 CALM      30.05F
BATON ROUGE      N/A     55  52  89 CALM      30.06F
BOOTHVILLE       N/A     70  60  70 E3        30.05F
BELLE CHASSE     N/A     57  53  86 CALM      30.05F
BOGALUSA*        N/A     50  47  89 CALM      30.08F
NEW ROADS*       N/A     54  53  97 CALM      30.06F
GONZALES*        N/A     55  55 100 CALM      30.05F FOG
HAMMOND*       NOT AVBL
HOUMA*           N/A     59  59 100 CALM      30.04F FOG
PORT FOURCHON* SUNNY     72  61  68 NE8       30.06F

$$

MSZ070-080>082-200800-
SOUTHERN MISSISSIPPI

CITY           SKY/WX    TMP DP  RH WIND       PRES   REMARKS
MCCOMB           N/A     51  47  86 CALM      30.06F
GULFPORT         N/A     55  52  89 CALM      30.05F
BILOXI           N/A     56  50  80 NE3       30.05F
PASCAGOULA       N/A     48  47  96 CALM      30.06F

$$

COASTAL OBSERVATIONS
LAKE AND NEARSHORE STATIONS

STATION/POSITION TIME  TEMP    WIND        PRES    WAVE
                       AIR SEA DIR/SP/G            HT/PER
                 (UTC) (F)     (DEG/KT/KT) (MB)    (FT/S)
PASCAGOULA       0600   58      10/  6/  7 1017.2
WAVELAND YACHT   0600   65      30/  3/  3 1017.0
GRAND ISLE       0600   72 78   80/  7/  9 1017.7
SOUTHWEST PASS   0600   72 84              1017.3
NEW CANAL        0600   65 72  130/  1/  3 1018.0
SHELL BEACH      0600   70 70   70/  5/  7 1017.3

OFFSHORE STATIONS

STATION/POSITION TIME  TEMP    WIND        PRES    WAVE
                       AIR SEA DIR/SP/G            HT/PER
                 (UTC) (F)     (DEG/KT/KT) (MB)    (FT/S)
64 S DAUPHIN ISL 0552   73 79   90/ 10/ 12 1017.8    2/ 6

$$




USA.gov is the U.S. government's official web portal to all federal, state and local government web resources and services.